• In Österreich
  • Länderverzeichnis
  • Für 7 Tage
  • Wassertemperatur
  • Satellitenkarten
  • Wetterkarte
  • News
  • Widgets
  • user-avatar
    Anmelden

    Stündliche Wetter Shkoder

    Heute, 22 Mai, Dienstag

    Zeit Temperatur Niederschläge Wind Luftdruck Luftfeuchtigkeit
    00:00 +17°C° 0,1 mm 2 m/S 738 mmHg 81%
    01:00 +17°C° 0,1 mm 2 m/S 738 mmHg 81%
    02:00 +17°C° 0,2 mm 2 m/S 739 mmHg 81%
    03:00 +17°C° 0,2 mm 2 m/S 739 mmHg 80%
    04:00 +17°C° 0,2 mm 2 m/S 739 mmHg 80%
    05:00 +19°C° 0,1 mm 1 m/S 739 mmHg 77%
    06:00 +21°C° 0,1 mm 1 m/S 739 mmHg 74%
    07:00 +22°C° 0,1 mm 1 m/S 739 mmHg 71%
    08:00 +23°C° 0,2 mm 1 m/S 740 mmHg 68%
    09:00 +25°C° 0,2 mm 2 m/S 740 mmHg 65%
    10:00 +26°C° 0,2 mm 2 m/S 740 mmHg 62%
    11:00 +26°C° 0,6 mm 2 m/S 740 mmHg 61%
    12:00 +27°C° 0,6 mm 2 m/S 740 mmHg 61%
    13:00 +27°C° 0,6 mm 2 m/S 740 mmHg 60%
    14:00 +27°C° 0,8 mm 2 m/S 739 mmHg 61%
    15:00 +26°C° 0,8 mm 2 m/S 739 mmHg 62%
    16:00 +26°C° 0,8 mm 2 m/S 739 mmHg 62%
    17:00 +25°C° 0,5 mm 1 m/S 739 mmHg 68%
    18:00 +23°C° 0,5 mm 1 m/S 740 mmHg 74%
    19:00 +21°C° 0,5 mm 1 m/S 740 mmHg 80%
    20:00 +21°C° 0,1 mm 1 m/S 740 mmHg 80%
    21:00 +20°C° 0,1 mm 1 m/S 740 mmHg 80%
    22:00 +20°C° 0,1 mm 1 m/S 741 mmHg 80%
    23:00 +18°C° 0,1 mm 2 m/S 741 mmHg 79%

    Morgen, 23 Mai, Mittwoch

    Zeit Temperatur Niederschläge Wind Luftdruck Luftfeuchtigkeit
    00:00 +18°C° 0,1 mm 2 m/S 741 mmHg 78%
    01:00 +18°C° 0,1 mm 2 m/S 740 mmHg 76%
    02:00 +18°C° 0,1 mm 2 m/S 740 mmHg 76%
    03:00 +17°C° 0,1 mm 2 m/S 740 mmHg 75%
    04:00 +17°C° 0,1 mm 2 m/S 740 mmHg 75%
    05:00 +20°C° 0,5 mm 1 m/S 741 mmHg 73%
    06:00 +21°C° 0,5 mm 1 m/S 741 mmHg 70%
    07:00 +23°C° 0,5 mm 1 m/S 741 mmHg 68%
    08:00 +23°C° 0,7 mm 1 m/S 741 mmHg 66%
    09:00 +24°C° 0,7 mm 2 m/S 741 mmHg 65%
    10:00 +25°C° 0,7 mm 2 m/S 741 mmHg 63%
    11:00 +25°C° 1 mm 2 m/S 741 mmHg 64%
    12:00 +25°C° 1 mm 2 m/S 740 mmHg 64%
    13:00 +25°C° 1 mm 2 m/S 740 mmHg 65%
    14:00 +25°C° 0,7 mm 2 m/S 740 mmHg 67%
    15:00 +24°C° 0,7 mm 2 m/S 740 mmHg 69%
    16:00 +24°C° 0,7 mm 2 m/S 740 mmHg 71%
    17:00 +23°C° 0,8 mm 2 m/S 740 mmHg 76%
    18:00 +21°C° 0,8 mm 1 m/S 740 mmHg 81%
    19:00 +20°C° 0,8 mm 1 m/S 740 mmHg 86%
    20:00 +19°C° 0,1 mm 1 m/S 740 mmHg 86%
    21:00 +19°C° 0,1 mm 1 m/S 740 mmHg 86%
    22:00 +18°C° 0,1 mm 1 m/S 740 mmHg 86%
    23:00 +18°C° 0 mm 1 m/S 740 mmHg 85%

    übermorgen, 24 Mai, Donnerstag

    Zeit Temperatur Niederschläge Wind Luftdruck Luftfeuchtigkeit
    00:00 +18°C° 0 mm 1 m/S 740 mmHg 84%
    01:00 +18°C° 0 mm 1 m/S 740 mmHg 83%
    02:00 +18°C° 0 mm 1 m/S 740 mmHg 83%
    03:00 +16°C° 0 mm 1 m/S 740 mmHg 83%
    04:00 +16°C° 0 mm 1 m/S 740 mmHg 82%
    05:00 +19°C° 0 mm 1 m/S 740 mmHg 78%
    06:00 +20°C° 0 mm 1 m/S 740 mmHg 75%
    07:00 +22°C° 0 mm 1 m/S 740 mmHg 71%
    08:00 +23°C° 0,1 mm 1 m/S 740 mmHg 67%
    09:00 +24°C° 0,1 mm 1 m/S 740 mmHg 62%
    10:00 +26°C° 0,1 mm 1 m/S 740 mmHg 58%
    11:00 +26°C° 0,3 mm 2 m/S 739 mmHg 58%
    12:00 +26°C° 0,3 mm 2 m/S 739 mmHg 58%
    13:00 +27°C° 0,3 mm 3 m/S 739 mmHg 58%
    14:00 +26°C° 0,7 mm 3 m/S 739 mmHg 62%
    15:00 +26°C° 0,7 mm 3 m/S 738 mmHg 65%
    16:00 +25°C° 0,7 mm 3 m/S 738 mmHg 68%
    17:00 +24°C° 0,6 mm 2 m/S 738 mmHg 74%
    18:00 +23°C° 0,6 mm 2 m/S 739 mmHg 79%
    19:00 +20°C° 0,6 mm 2 m/S 739 mmHg 85%
    20:00 +20°C° 0,1 mm 2 m/S 739 mmHg 85%
    21:00 +19°C° 0,1 mm 2 m/S 739 mmHg 85%
    22:00 +19°C° 0,1 mm 2 m/S 739 mmHg 84%
    23:00 +18°C° 0 mm 2 m/S 739 mmHg 85%

    25 Mai, Freitag

    Zeit Temperatur Niederschläge Wind Luftdruck Luftfeuchtigkeit
    00:00 +18°C° 0 mm 2 m/S 739 mmHg 86%
    01:00 +18°C° 0 mm 2 m/S 739 mmHg 86%
    02:00 +17°C° 0 mm 2 m/S 739 mmHg 87%
    03:00 +17°C° 0 mm 2 m/S 739 mmHg 87%
    04:00 +17°C° 0 mm 2 m/S 739 mmHg 88%
    05:00 +18°C° 0 mm 2 m/S 739 mmHg 84%
    06:00 +20°C° 0 mm 2 m/S 739 mmHg 80%
    07:00 +21°C° 0 mm 3 m/S 739 mmHg 76%
    08:00 +23°C° 0 mm 2 m/S 740 mmHg 68%
    09:00 +25°C° 0 mm 2 m/S 740 mmHg 60%
    10:00 +26°C° 0 mm 2 m/S 740 mmHg 52%
    11:00 +27°C° 0 mm 2 m/S 739 mmHg 50%
    12:00 +28°C° 0 mm 3 m/S 739 mmHg 48%
    13:00 +28°C° 0 mm 3 m/S 739 mmHg 47%
    14:00 +28°C° 0 mm 3 m/S 739 mmHg 49%
    15:00 +28°C° 0 mm 3 m/S 739 mmHg 51%
    16:00 +28°C° 0 mm 3 m/S 739 mmHg 53%
    17:00 +26°C° 0 mm 3 m/S 739 mmHg 61%
    18:00 +24°C° 0 mm 2 m/S 739 mmHg 68%
    19:00 +21°C° 0 mm 2 m/S 739 mmHg 76%
    20:00 +20°C° 0 mm 2 m/S 739 mmHg 76%
    21:00 +20°C° 0 mm 2 m/S 739 mmHg 76%
    22:00 +19°C° 0 mm 2 m/S 740 mmHg 77%
    23:00 +19°C° 0 mm 2 m/S 740 mmHg 78%

    26 Mai, Samstag

    Zeit Temperatur Niederschläge Wind Luftdruck Luftfeuchtigkeit
    00:00 +18°C° 0 mm 2 m/S 740 mmHg 79%
    01:00 +18°C° 0 mm 2 m/S 740 mmHg 80%
    02:00 +18°C° 0 mm 3 m/S 740 mmHg 81%
    03:00 +17°C° 0 mm 3 m/S 740 mmHg 82%
    04:00 +17°C° 0 mm 3 m/S 740 mmHg 82%
    05:00 +19°C° 0 mm 2 m/S 740 mmHg 78%
    06:00 +21°C° 0 mm 2 m/S 740 mmHg 74%
    07:00 +23°C° 0 mm 2 m/S 740 mmHg 70%
    08:00 +25°C° 0 mm 2 m/S 740 mmHg 64%
    09:00 +26°C° 0 mm 2 m/S 740 mmHg 58%
    10:00 +28°C° 0 mm 2 m/S 740 mmHg 51%
    11:00 +28°C° 0,1 mm 2 m/S 740 mmHg 51%
    12:00 +29°C° 0,1 mm 3 m/S 740 mmHg 50%
    13:00 +30°C° 0,1 mm 3 m/S 740 mmHg 50%
    14:00 +29°C° 0,5 mm 3 m/S 740 mmHg 52%
    15:00 +29°C° 0,5 mm 3 m/S 740 mmHg 55%
    16:00 +28°C° 0,5 mm 3 m/S 739 mmHg 58%
    17:00 +27°C° 0,3 mm 3 m/S 740 mmHg 64%
    18:00 +25°C° 0,3 mm 3 m/S 740 mmHg 69%
    19:00 +24°C° 0,3 mm 3 m/S 740 mmHg 75%
    20:00 +22°C° 0 mm 3 m/S 740 mmHg 76%
    21:00 +21°C° 0 mm 3 m/S 740 mmHg 77%
    22:00 +20°C° 0 mm 3 m/S 741 mmHg 78%
    23:00 +20°C° 0 mm 3 m/S 741 mmHg 80%

    27 Mai, Sonntag

    Zeit Temperatur Niederschläge Wind Luftdruck Luftfeuchtigkeit
    00:00 +20°C° 0 mm 3 m/S 740 mmHg 81%
    01:00 +19°C° 0 mm 3 m/S 740 mmHg 82%
    02:00 +19°C° 0 mm 3 m/S 740 mmHg 83%
    03:00 +19°C° 0 mm 3 m/S 740 mmHg 83%
    04:00 +18°C° 0 mm 3 m/S 740 mmHg 84%
    05:00 +20°C° 0 mm 3 m/S 740 mmHg 81%
    06:00 +21°C° 0 mm 3 m/S 740 mmHg 78%
    07:00 +24°C° 0 mm 3 m/S 740 mmHg 75%
    08:00 +25°C° 0 mm 3 m/S 740 mmHg 70%
    09:00 +27°C° 0 mm 3 m/S 740 mmHg 65%
    10:00 +28°C° 0 mm 3 m/S 740 mmHg 60%
    11:00 +28°C° 0,3 mm 3 m/S 740 mmHg 58%
    12:00 +29°C° 0,3 mm 3 m/S 740 mmHg 57%
    13:00 +29°C° 0,3 mm 4 m/S 740 mmHg 56%
    14:00 +29°C° 0,5 mm 3 m/S 740 mmHg 58%
    15:00 +29°C° 0,5 mm 3 m/S 739 mmHg 60%
    16:00 +28°C° 0,5 mm 3 m/S 739 mmHg 62%
    17:00 +27°C° 0,2 mm 3 m/S 739 mmHg 67%
    18:00 +25°C° 0,2 mm 3 m/S 740 mmHg 72%
    19:00 +24°C° 0,2 mm 3 m/S 740 mmHg 78%
    20:00 +22°C° 0 mm 3 m/S 740 mmHg 79%
    21:00 +21°C° 0 mm 3 m/S 740 mmHg 81%
    22:00 +20°C° 0 mm 3 m/S 740 mmHg 82%
    23:00 +20°C° 0 mm 3 m/S 740 mmHg 84%
    Mehr zeigen